Time,TemperatureF,DewpointF,PressureIn,WindDirection,WindDirectionDegrees,WindSpeedMPH,WindSpeedGustMPH,Humidity,HourlyPrecipIn,Conditions,Clouds,dailyrainin,SoftwareType,DateUTC
2013-02-25 00:00:00,33.1,17.8,-100.00,SE,127,2.8,9.8,53,0.00,,,0.00,WSDL version 423,2013-02-25 05:00:00,
2013-02-25 00:03:00,33.1,17.8,-100.00,ESE,103,2.8,6.3,53,0.00,,,0.00,WSDL version 423,2013-02-25 05:03:00,
2013-02-25 00:09:00,33.0,17.8,-100.00,ESE,105,2.5,6.0,53,0.00,,,0.00,WSDL version 423,2013-02-25 05:09:00,
2013-02-25 00:12:00,32.9,17.6,-100.00,ESE,105,0.3,6.0,53,0.00,,,0.00,WSDL version 423,2013-02-25 05:12:00,
2013-02-25 00:18:00,32.7,17.5,-100.00,WSW,248,1.9,3.6,53,0.00,,,0.00,WSDL version 423,2013-02-25 05:18:00,
2013-02-25 00:24:00,32.7,17.5,-100.00,East,93,2.7,4.7,53,0.00,,,0.00,WSDL version 423,2013-02-25 05:24:00,
2013-02-25 00:30:00,32.7,17.5,-100.00,ESE,103,2.6,5.4,53,0.00,,,0.00,WSDL version 423,2013-02-25 05:30:00,
2013-02-25 00:36:00,32.7,17.5,-100.00,SE,139,1.9,7.6,53,0.00,,,0.00,WSDL version 423,2013-02-25 05:36:00,
2013-02-25 00:42:00,32.7,17.5,-100.00,ESE,115,2.6,7.6,53,0.00,,,0.00,WSDL version 423,2013-02-25 05:42:00,
2013-02-25 00:48:00,32.7,17.5,-100.00,ESE,110,2.2,4.0,53,0.00,,,0.00,WSDL version 423,2013-02-25 05:48:00,
2013-02-25 00:54:00,32.7,17.4,-100.00,SE,125,3.4,5.8,53,0.00,,,0.00,WSDL version 423,2013-02-25 05:54:00,
2013-02-25 01:00:00,32.7,17.5,-100.00,SE,138,3.0,5.8,53,0.00,,,0.00,WSDL version 423,2013-02-25 06:00:00,
2013-02-25 01:06:00,32.7,17.4,-100.00,SE,146,1.9,6.0,53,0.00,,,0.00,WSDL version 423,2013-02-25 06:06:00,
2013-02-25 01:12:00,32.5,17.5,-100.00,ESE,108,2.7,6.0,54,0.00,,,0.00,WSDL version 423,2013-02-25 06:12:00,
2013-02-25 01:18:00,32.5,17.7,-100.00,ESE,113,3.6,4.3,54,0.00,,,0.00,WSDL version 423,2013-02-25 06:18:00,
2013-02-25 01:24:00,32.5,17.7,-100.00,ESE,113,2.9,6.5,54,0.00,,,0.00,WSDL version 423,2013-02-25 06:24:00,
2013-02-25 01:30:00,32.5,17.7,-100.00,ESE,115,1.7,4.7,54,0.00,,,0.00,WSDL version 423,2013-02-25 06:30:00,
2013-02-25 01:36:00,32.4,17.6,-100.00,ESE,118,2.2,5.6,54,0.00,,,0.00,WSDL version 423,2013-02-25 06:36:00,
2013-02-25 01:42:00,32.4,17.6,-100.00,ESE,121,2.0,6.0,54,0.00,,,0.00,WSDL version 423,2013-02-25 06:42:00,
2013-02-25 01:48:00,32.2,17.4,-100.00,SE,132,1.9,6.0,54,0.00,,,0.00,WSDL version 423,2013-02-25 06:48:00,
2013-02-25 01:54:00,32.3,17.6,-100.00,SE,138,3.5,5.6,54,0.00,,,0.00,WSDL version 423,2013-02-25 06:54:00,
2013-02-25 02:00:00,32.3,17.5,-100.00,SE,127,2.5,5.6,54,0.00,,,0.00,WSDL version 423,2013-02-25 07:00:00,
2013-02-25 02:06:00,32.2,17.8,-100.00,ESE,110,2.1,4.7,55,0.00,,,0.00,WSDL version 423,2013-02-25 07:06:00,
2013-02-25 02:12:00,32.2,17.8,-100.00,ESE,120,2.1,4.7,55,0.00,,,0.00,WSDL version 423,2013-02-25 07:12:00,
2013-02-25 02:18:00,32.2,17.8,-100.00,SE,132,2.0,4.0,55,0.00,,,0.00,WSDL version 423,2013-02-25 07:18:00,
2013-02-25 02:24:00,32.1,18.9,-100.00,SE,135,1.4,3.6,55,0.00,,,0.00,WSDL version 423,2013-02-25 07:24:00,
2013-02-25 02:30:00,32.1,18.2,-100.00,South,178,1.3,5.4,55,0.00,,,0.00,WSDL version 423,2013-02-25 07:30:00,
2013-02-25 02:36:00,32.0,19.3,-100.00,SE,133,0.9,4.0,55,0.00,,,0.00,WSDL version 423,2013-02-25 07:36:00,
2013-02-25 02:42:00,31.8,19.0,-100.00,East,90,0.2,2.9,55,0.00,,,0.00,WSDL version 423,2013-02-25 07:42:00,
2013-02-25 02:48:00,31.8,19.3,-100.00,ESE,106,1.9,3.8,55,0.00,,,0.00,WSDL version 423,2013-02-25 07:48:00,
2013-02-25 02:54:00,31.8,19.5,-100.00,ESE,105,1.4,4.0,56,0.00,,,0.00,WSDL version 423,2013-02-25 07:54:00,
2013-02-25 03:00:00,31.7,19.4,-100.00,SE,143,0.7,4.0,56,0.00,,,0.00,WSDL version 423,2013-02-25 08:00:00,
2013-02-25 03:06:00,31.6,19.3,-100.00,SE,135,0.3,3.6,56,0.00,,,0.00,WSDL version 423,2013-02-25 08:06:00,
2013-02-25 03:12:00,31.5,19.1,-100.00,SE,132,1.3,3.6,56,0.00,,,0.00,WSDL version 423,2013-02-25 08:12:00,
2013-02-25 03:18:00,31.3,19.0,-100.00,East,101,0.8,3.6,56,0.00,,,0.00,WSDL version 423,2013-02-25 08:18:00,
2013-02-25 03:24:00,31.5,19.4,-100.00,ESE,107,0.6,3.1,57,0.00,,,0.00,WSDL version 423,2013-02-25 08:24:00,
2013-02-25 03:30:00,31.3,19.0,-100.00,ESE,107,0.0,3.1,56,0.00,,,0.00,WSDL version 423,2013-02-25 08:30:00,
2013-02-25 03:36:00,31.0,18.7,-100.00,SSE,148,0.0,2.2,56,0.00,,,0.00,WSDL version 423,2013-02-25 08:36:00,
2013-02-25 03:42:00,31.1,19.2,-100.00,East,90,0.5,2.2,57,0.00,,,0.00,WSDL version 423,2013-02-25 08:42:00,
2013-02-25 03:48:00,31.1,19.2,-100.00,East,94,0.0,2.2,57,0.00,,,0.00,WSDL version 423,2013-02-25 08:48:00,
2013-02-25 03:54:00,30.9,19.0,-100.00,SE,135,0.0,2.5,57,0.00,,,0.00,WSDL version 423,2013-02-25 08:54:00,
2013-02-25 04:00:00,30.9,18.9,-100.00,SE,135,0.5,2.5,57,0.00,,,0.00,WSDL version 423,2013-02-25 09:00:00,
2013-02-25 04:06:00,30.7,18.8,-100.00,ENE,62,1.0,3.1,57,0.00,,,0.00,WSDL version 423,2013-02-25 09:06:00,
2013-02-25 04:12:00,30.7,18.7,-100.00,South,180,0.0,3.1,57,0.00,,,0.00,WSDL version 423,2013-02-25 09:12:00,
2013-02-25 04:18:00,30.3,18.4,-100.00,South,180,0.0,0.0,57,0.00,,,0.00,WSDL version 423,2013-02-25 09:18:00,
2013-02-25 04:24:00,29.9,18.0,-100.00,South,180,0.0,0.0,57,0.00,,,0.00,WSDL version 423,2013-02-25 09:24:00,
2013-02-25 04:30:00,29.6,17.8,-100.00,South,180,0.0,0.0,58,0.00,,,0.00,WSDL version 423,2013-02-25 09:30:00,
2013-02-25 04:36:00,29.5,17.9,-100.00,SE,140,0.0,0.0,58,0.00,,,0.00,WSDL version 423,2013-02-25 09:36:00,
2013-02-25 04:42:00,29.5,18.1,-100.00,East,98,0.1,1.6,59,0.00,,,0.00,WSDL version 423,2013-02-25 09:42:00,
2013-02-25 04:48:00,29.9,18.7,-100.00,ESE,103,1.6,2.7,59,0.00,,,0.00,WSDL version 423,2013-02-25 09:48:00,
2013-02-25 04:54:00,30.0,18.8,-100.00,East,90,0.0,2.9,59,0.00,,,0.00,WSDL version 423,2013-02-25 09:54:00,
2013-02-25 05:00:00,30.1,19.1,-100.00,East,87,0.5,2.9,60,0.00,,,0.00,WSDL version 423,2013-02-25 10:00:00,
2013-02-25 05:06:00,30.2,19.2,-100.00,ESE,104,1.2,2.7,59,0.00,,,0.00,WSDL version 423,2013-02-25 10:06:00,
2013-02-25 05:12:00,30.2,19.0,-100.00,East,93,1.1,2.7,59,0.00,,,0.00,WSDL version 423,2013-02-25 10:12:00,
2013-02-25 05:18:00,30.5,19.6,-100.00,East,90,1.2,3.6,60,0.00,,,0.00,WSDL version 423,2013-02-25 10:18:00,
2013-02-25 05:24:00,30.4,19.3,-100.00,East,90,0.6,2.9,59,0.00,,,0.00,WSDL version 423,2013-02-25 10:24:00,
2013-02-25 05:30:00,30.5,19.6,-100.00,East,100,1.0,3.6,60,0.00,,,0.00,WSDL version 423,2013-02-25 10:30:00,
2013-02-25 05:36:00,30.5,19.6,-100.00,SE,125,0.0,3.6,59,0.00,,,0.00,WSDL version 423,2013-02-25 10:36:00,
2013-02-25 05:42:00,30.4,19.2,-100.00,East,93,0.6,2.2,59,0.00,,,0.00,WSDL version 423,2013-02-25 10:42:00,
2013-02-25 05:48:00,30.5,19.7,-100.00,East,90,0.9,4.0,60,0.00,,,0.00,WSDL version 423,2013-02-25 10:48:00,
2013-02-25 05:54:00,30.4,19.6,-100.00,East,93,0.0,4.0,60,0.00,,,0.00,WSDL version 423,2013-02-25 10:54:00,
2013-02-25 06:00:00,30.3,19.5,-100.00,East,90,0.0,1.3,60,0.00,,,0.00,WSDL version 423,2013-02-25 11:00:00,
2013-02-25 06:06:00,30.4,19.6,-100.00,ESE,108,1.0,2.9,60,0.00,,,0.00,WSDL version 423,2013-02-25 11:06:00,
2013-02-25 06:12:00,30.5,19.7,-100.00,East,96,1.1,2.9,60,0.00,,,0.00,WSDL version 423,2013-02-25 11:12:00,
2013-02-25 06:18:00,30.7,20.0,-100.00,East,93,1.3,3.8,60,0.00,,,0.00,WSDL version 423,2013-02-25 11:18:00,
2013-02-25 06:24:00,30.7,20.1,-100.00,East,93,0.1,2.7,61,0.00,,,0.00,WSDL version 423,2013-02-25 11:24:00,
2013-02-25 06:30:00,30.7,20.2,-100.00,East,101,1.1,2.7,61,0.00,,,0.00,WSDL version 423,2013-02-25 11:30:00,
2013-02-25 06:36:00,30.6,20.1,-100.00,ESE,113,1.2,2.7,61,0.00,,,0.00,WSDL version 423,2013-02-25 11:36:00,
2013-02-25 06:42:00,30.7,20.2,-100.00,East,90,0.7,2.2,61,0.00,,,0.00,WSDL version 423,2013-02-25 11:42:00,
2013-02-25 06:48:00,30.7,20.4,-100.00,East,90,0.0,2.0,62,0.00,,,0.00,WSDL version 423,2013-02-25 11:48:00,
2013-02-25 06:54:00,30.6,20.0,-100.00,ESE,107,0.1,2.0,61,0.00,,,0.00,WSDL version 423,2013-02-25 11:54:00,
2013-02-25 07:00:00,30.6,20.1,-100.00,East,90,0.0,1.3,61,0.00,,,0.00,WSDL version 423,2013-02-25 12:00:00,
2013-02-25 07:06:00,30.7,20.2,-100.00,East,90,0.0,0.0,61,0.00,,,0.00,WSDL version 423,2013-02-25 12:06:00,
2013-02-25 07:12:00,30.9,20.5,-100.00,ESE,115,0.4,2.2,62,0.00,,,0.00,WSDL version 423,2013-02-25 12:12:00,
2013-02-25 07:18:00,31.1,20.8,-100.00,ESE,121,2.0,3.8,62,0.00,,,0.00,WSDL version 423,2013-02-25 12:18:00,
2013-02-25 07:24:00,31.5,21.3,-100.00,ESE,118,0.7,3.8,62,0.00,,,0.00,WSDL version 423,2013-02-25 12:24:00,
2013-02-25 07:30:00,31.9,21.5,-100.00,SE,145,1.7,4.0,62,0.00,,,0.00,WSDL version 423,2013-02-25 12:30:00,
2013-02-25 07:36:00,32.4,21.2,-100.00,ESE,115,1.9,4.3,63,0.00,,,0.00,WSDL version 423,2013-02-25 12:36:00,
2013-02-25 07:42:00,32.7,21.2,-100.00,East,98,0.0,4.3,62,0.00,,,0.00,WSDL version 423,2013-02-25 12:42:00,
2013-02-25 07:50:00,33.0,21.5,-100.00,ESE,115,1.5,3.8,63,0.00,,,0.00,WSDL version 423,2013-02-25 12:50:00,
2013-02-25 07:58:00,33.7,22.0,-100.00,East,84,2.7,4.0,62,0.00,,,0.00,WSDL version 423,2013-02-25 12:58:00,
2013-02-25 08:06:00,34.2,22.6,-100.00,ESE,121,2.7,6.0,62,0.00,,,0.00,WSDL version 423,2013-02-25 13:06:00,
2013-02-25 08:12:00,34.8,23.1,-100.00,SE,143,2.7,7.4,62,0.00,,,0.00,WSDL version 423,2013-02-25 13:12:00,
2013-02-25 08:18:00,35.1,23.1,-100.00,ESE,113,1.6,5.4,61,0.00,,,0.00,WSDL version 423,2013-02-25 13:18:00,
2013-02-25 08:24:00,35.5,23.2,-100.00,SSE,152,1.8,4.0,60,0.00,,,0.00,WSDL version 423,2013-02-25 13:24:00,
2013-02-25 08:30:00,35.8,23.3,-100.00,SE,135,2.2,4.0,60,0.00,,,0.00,WSDL version 423,2013-02-25 13:30:00,
2013-02-25 08:36:00,36.2,23.3,-100.00,ESE,115,2.1,5.6,59,0.00,,,0.00,WSDL version 423,2013-02-25 13:36:00,
2013-02-25 08:42:00,36.5,23.6,-100.00,North,10,1.4,5.6,59,0.00,,,0.00,WSDL version 423,2013-02-25 13:42:00,
2013-02-25 08:48:00,36.9,23.7,-100.00,ESE,104,1.1,3.6,58,0.00,,,0.00,WSDL version 423,2013-02-25 13:48:00,
2013-02-25 08:54:00,37.1,23.7,-100.00,ESE,118,1.4,4.3,58,0.00,,,0.00,WSDL version 423,2013-02-25 13:54:00,
2013-02-25 09:00:00,37.5,23.6,-100.00,SSE,152,2.3,4.3,57,0.00,,,0.00,WSDL version 423,2013-02-25 14:00:00,
2013-02-25 09:06:00,37.8,23.7,-100.00,East,90,2.7,6.5,56,0.00,,,0.00,WSDL version 423,2013-02-25 14:06:00,
2013-02-25 09:12:00,38.1,23.8,-100.00,ESE,113,2.4,6.5,56,0.00,,,0.00,WSDL version 423,2013-02-25 14:12:00,
2013-02-25 09:18:00,38.5,23.9,-100.00,SSE,150,2.0,4.0,55,0.00,,,0.00,WSDL version 423,2013-02-25 14:18:00,
2013-02-25 09:24:00,39.0,24.3,-100.00,South,180,1.4,4.0,55,0.00,,,0.00,WSDL version 423,2013-02-25 14:24:00,
2013-02-25 09:30:00,39.4,24.3,-100.00,ESE,121,1.7,3.8,54,0.00,,,0.00,WSDL version 423,2013-02-25 14:30:00,
2013-02-25 09:36:00,39.6,23.9,-100.00,SE,145,1.8,6.0,53,0.00,,,0.00,WSDL version 423,2013-02-25 14:36:00,
2013-02-25 09:42:00,39.8,24.1,-100.00,SW,218,1.4,5.4,53,0.00,,,0.00,WSDL version 423,2013-02-25 14:42:00,
2013-02-25 09:48:00,-999.0,-99.9,-100.00,South,183,0.6,6.0,-999,0.00,,,0.00,WSDL version 423,2013-02-25 14:48:00,
2013-02-25 09:54:00,40.5,24.3,-100.00,East,85,2.1,6.5,52,0.00,,,0.00,WSDL version 423,2013-02-25 14:54:00,
2013-02-25 10:00:00,40.7,24.5,-100.00,SE,133,2.5,6.0,51,0.00,,,0.00,WSDL version 423,2013-02-25 15:00:00,
2013-02-25 10:06:00,41.0,23.8,-100.00,South,186,1.7,5.4,50,0.00,,,0.00,WSDL version 423,2013-02-25 15:06:00,
2013-02-25 10:12:00,41.1,24.4,-100.00,WNW,295,1.2,5.4,51,0.00,,,0.00,WSDL version 423,2013-02-25 15:12:00,
2013-02-25 10:18:00,41.4,24.2,-100.00,SE,143,1.9,6.0,50,0.00,,,0.00,WSDL version 423,2013-02-25 15:18:00,
2013-02-25 10:24:00,41.9,25.0,-100.00,ESE,109,2.0,6.0,50,0.00,,,0.00,WSDL version 423,2013-02-25 15:24:00,
2013-02-25 10:30:00,42.2,24.7,-100.00,SSE,152,1.3,5.4,50,0.00,,,0.00,WSDL version 423,2013-02-25 15:30:00,
2013-02-25 10:36:00,42.4,24.4,-100.00,ESE,107,2.3,7.6,49,0.00,,,0.00,WSDL version 423,2013-02-25 15:36:00,
2013-02-25 10:42:00,43.0,25.0,-100.00,SE,140,2.0,4.7,48,0.00,,,0.00,WSDL version 423,2013-02-25 15:42:00,
2013-02-25 10:48:00,43.2,24.8,-100.00,East,101,1.9,4.7,48,0.00,,,0.00,WSDL version 423,2013-02-25 15:48:00,
2013-02-25 10:54:00,43.3,24.4,-100.00,SE,135,2.8,5.6,46,0.00,,,0.00,WSDL version 423,2013-02-25 15:54:00,
2013-02-25 11:00:00,42.9,23.7,-100.00,ESE,113,2.3,5.6,46,0.00,,,0.00,WSDL version 423,2013-02-25 16:00:00,
2013-02-25 11:06:00,43.2,24.3,-100.00,SSE,152,1.0,4.0,47,0.00,,,0.00,WSDL version 423,2013-02-25 16:06:00,
2013-02-25 11:12:00,44.4,25.6,-100.00,ESE,121,3.3,6.3,46,0.00,,,0.00,WSDL version 423,2013-02-25 16:12:00,
2013-02-25 11:18:00,44.3,24.1,-100.00,ESE,120,2.5,6.7,45,0.00,,,0.00,WSDL version 423,2013-02-25 16:18:00,
2013-02-25 11:24:00,44.2,24.4,-100.00,ESE,113,2.1,6.3,46,0.00,,,0.00,WSDL version 423,2013-02-25 16:24:00,
2013-02-25 11:30:00,44.2,23.8,-100.00,SE,129,3.7,6.3,43,0.00,,,0.00,WSDL version 423,2013-02-25 16:30:00,
2013-02-25 11:36:00,44.2,24.0,-100.00,SSW,197,1.4,6.3,45,0.00,,,0.00,WSDL version 423,2013-02-25 16:36:00,
2013-02-25 11:42:00,44.6,24.4,-100.00,SE,135,2.7,4.3,44,0.00,,,0.00,WSDL version 423,2013-02-25 16:42:00,
2013-02-25 11:48:00,45.0,24.5,-100.00,ESE,107,3.1,6.0,43,0.00,,,0.00,WSDL version 423,2013-02-25 16:48:00,
2013-02-25 11:54:00,44.9,23.9,-100.00,SSE,161,3.3,6.0,43,0.00,,,0.00,WSDL version 423,2013-02-25 16:54:00,
2013-02-25 12:00:00,45.1,24.7,-100.00,South,173,2.3,5.4,45,0.00,,,0.00,WSDL version 423,2013-02-25 17:00:00,
2013-02-25 12:06:00,45.2,24.4,-100.00,SE,125,3.3,6.0,44,0.00,,,0.00,WSDL version 423,2013-02-25 17:06:00,
2013-02-25 12:12:00,45.2,24.4,-100.00,SE,135,3.4,8.1,43,0.00,,,0.00,WSDL version 423,2013-02-25 17:12:00,
2013-02-25 12:18:00,45.1,23.9,-100.00,SE,135,2.5,5.4,43,0.00,,,0.00,WSDL version 423,2013-02-25 17:18:00,
2013-02-25 12:24:00,45.4,24.1,-100.00,ESE,105,4.2,8.7,42,0.00,,,0.00,WSDL version 423,2013-02-25 17:24:00,
2013-02-25 12:30:00,45.5,23.6,-100.00,SSE,164,2.8,8.7,42,0.00,,,0.00,WSDL version 423,2013-02-25 17:30:00,
2013-02-25 12:36:00,45.5,23.3,-100.00,East,93,2.0,6.3,41,0.00,,,0.00,WSDL version 423,2013-02-25 17:36:00,
2013-02-25 12:42:00,45.8,23.9,-100.00,ESE,113,1.3,5.4,42,0.00,,,0.00,WSDL version 423,2013-02-25 17:42:00,
2013-02-25 12:48:00,46.2,24.5,-100.00,SE,143,2.6,10.5,42,0.00,,,0.00,WSDL version 423,2013-02-25 17:48:00,
2013-02-25 12:54:00,46.2,23.5,-100.00,South,180,2.5,10.5,41,0.00,,,0.00,WSDL version 423,2013-02-25 17:54:00,
2013-02-25 13:00:00,46.4,23.7,-100.00,SE,129,4.0,6.3,41,0.00,,,0.00,WSDL version 423,2013-02-25 18:00:00,
2013-02-25 13:06:00,46.3,24.2,-100.00,SW,218,2.4,6.3,42,0.00,,,0.00,WSDL version 423,2013-02-25 18:06:00,
2013-02-25 13:12:00,46.4,24.2,-100.00,SE,138,2.6,5.6,40,0.00,,,0.00,WSDL version 423,2013-02-25 18:12:00,
2013-02-25 13:18:00,46.1,24.0,-100.00,ESE,116,1.3,7.8,42,0.00,,,0.00,WSDL version 423,2013-02-25 18:18:00,
2013-02-25 13:24:00,46.4,24.5,-100.00,SSW,200,2.1,4.3,42,0.00,,,0.00,WSDL version 423,2013-02-25 18:24:00,
2013-02-25 13:30:00,46.4,24.4,-100.00,WNW,295,1.9,5.8,41,0.00,,,0.00,WSDL version 423,2013-02-25 18:30:00,
2013-02-25 13:36:00,46.3,23.7,-100.00,SE,129,3.9,7.2,41,0.00,,,0.00,WSDL version 423,2013-02-25 18:36:00,
2013-02-25 13:42:00,46.3,23.7,-100.00,ESE,123,2.3,7.2,40,0.00,,,0.00,WSDL version 423,2013-02-25 18:42:00,
2013-02-25 13:48:00,46.6,23.5,-100.00,SE,127,3.1,6.3,40,0.00,,,0.00,WSDL version 423,2013-02-25 18:48:00,
2013-02-25 13:54:00,46.6,23.5,-100.00,SE,125,2.0,8.1,41,0.00,,,0.00,WSDL version 423,2013-02-25 18:54:00,
2013-02-25 14:00:00,46.8,24.2,-100.00,SSE,164,2.4,7.8,41,0.00,,,0.00,WSDL version 423,2013-02-25 19:00:00,
2013-02-25 14:06:00,46.6,23.7,-100.00,ESE,115,3.5,6.3,40,0.00,,,0.00,WSDL version 423,2013-02-25 19:06:00,
2013-02-25 14:12:00,46.0,23.6,-100.00,SW,217,3.4,5.8,41,0.00,,,0.00,WSDL version 423,2013-02-25 19:12:00,
2013-02-25 14:18:00,46.0,23.2,-100.00,ESE,121,3.6,6.5,40,0.00,,,0.00,WSDL version 423,2013-02-25 19:18:00,
2013-02-25 14:24:00,46.0,23.7,-100.00,WSW,253,1.5,6.5,41,0.00,,,0.00,WSDL version 423,2013-02-25 19:24:00,
2013-02-25 14:30:00,46.2,23.8,-100.00,ESE,110,2.3,4.7,40,0.00,,,0.00,WSDL version 423,2013-02-25 19:30:00,
2013-02-25 14:36:00,46.4,24.1,-100.00,SW,225,2.0,4.7,42,0.00,,,0.00,WSDL version 423,2013-02-25 19:36:00,
2013-02-25 14:42:00,46.1,22.9,-100.00,East,96,4.3,7.4,40,0.00,,,0.00,WSDL version 423,2013-02-25 19:42:00,
2013-02-25 14:48:00,45.6,22.7,-100.00,SE,128,3.9,7.4,40,0.00,,,0.00,WSDL version 423,2013-02-25 19:48:00,
2013-02-25 14:54:00,45.3,22.4,-100.00,SE,145,3.5,7.6,40,0.00,,,0.00,WSDL version 423,2013-02-25 19:54:00,
2013-02-25 15:00:00,45.1,22.8,-100.00,ESE,115,2.4,7.6,41,0.00,,,0.00,WSDL version 423,2013-02-25 20:00:00,
2013-02-25 15:06:00,45.3,23.3,-100.00,SE,128,1.6,4.9,42,0.00,,,0.00,WSDL version 423,2013-02-25 20:06:00,
2013-02-25 15:12:00,45.3,22.9,-100.00,East,93,4.2,6.5,40,0.00,,,0.00,WSDL version 423,2013-02-25 20:12:00,
2013-02-25 15:18:00,45.3,22.4,-100.00,SE,129,2.6,6.5,40,0.00,,,0.00,WSDL version 423,2013-02-25 20:18:00,
2013-02-25 15:24:00,45.5,22.7,-100.00,ESE,121,2.7,9.6,40,0.00,,,0.00,WSDL version 423,2013-02-25 20:24:00,
2013-02-25 15:30:00,45.3,22.4,-100.00,SE,129,2.7,9.6,40,0.00,,,0.00,WSDL version 423,2013-02-25 20:30:00,
2013-02-25 15:36:00,45.1,22.4,-100.00,SE,138,3.3,6.5,41,0.00,,,0.00,WSDL version 423,2013-02-25 20:36:00,
2013-02-25 15:42:00,45.0,22.9,-100.00,SSE,161,2.2,6.5,42,0.00,,,0.00,WSDL version 423,2013-02-25 20:42:00,
2013-02-25 15:48:00,44.7,22.5,-100.00,South,169,1.7,4.9,41,0.00,,,0.00,WSDL version 423,2013-02-25 20:48:00,
2013-02-25 15:54:00,44.4,22.2,-100.00,SE,140,3.0,4.7,41,0.00,,,0.00,WSDL version 423,2013-02-25 20:54:00,
2013-02-25 16:00:00,44.2,22.0,-100.00,SE,124,2.0,4.3,41,0.00,,,0.00,WSDL version 423,2013-02-25 21:00:00,
2013-02-25 16:06:00,44.1,22.1,-100.00,SE,129,2.3,5.6,42,0.00,,,0.00,WSDL version 423,2013-02-25 21:06:00,
2013-02-25 16:12:00,44.1,22.4,-100.00,ENE,68,1.2,5.6,42,0.00,,,0.00,WSDL version 423,2013-02-25 21:12:00,
2013-02-25 16:18:00,43.9,22.3,-100.00,SSE,155,2.6,7.6,42,0.00,,,0.00,WSDL version 423,2013-02-25 21:18:00,
2013-02-25 16:24:00,43.9,22.8,-100.00,North,357,0.8,4.3,43,0.00,,,0.00,WSDL version 423,2013-02-25 21:24:00,
2013-02-25 16:30:00,43.7,22.7,-100.00,ESE,122,2.0,2.9,43,0.00,,,0.00,WSDL version 423,2013-02-25 21:30:00,
2013-02-25 16:36:00,43.7,22.9,-100.00,South,191,0.4,2.9,44,0.00,,,0.00,WSDL version 423,2013-02-25 21:36:00,
2013-02-25 16:42:00,43.5,22.8,-100.00,SSE,149,2.3,10.1,44,0.00,,,0.00,WSDL version 423,2013-02-25 21:42:00,
2013-02-25 16:48:00,43.5,23.0,-100.00,ESE,116,1.2,10.1,44,0.00,,,0.00,WSDL version 423,2013-02-25 21:48:00,
2013-02-25 16:54:00,43.3,22.9,-100.00,East,98,1.7,4.0,44,0.00,,,0.00,WSDL version 423,2013-02-25 21:54:00,
2013-02-25 17:00:00,43.3,22.8,-100.00,East,98,1.6,4.9,44,0.00,,,0.00,WSDL version 423,2013-02-25 22:00:00,
2013-02-25 17:06:00,43.1,22.3,-100.00,ESE,118,2.6,7.6,43,0.00,,,0.00,WSDL version 423,2013-02-25 22:06:00,
2013-02-25 17:12:00,43.0,22.4,-100.00,SE,141,2.7,7.6,44,0.00,,,0.00,WSDL version 423,2013-02-25 22:12:00,
2013-02-25 17:18:00,42.8,22.5,-100.00,ESE,110,2.2,6.3,45,0.00,,,0.00,WSDL version 423,2013-02-25 22:18:00,
2013-02-25 17:24:00,42.7,22.8,-100.00,ESE,121,2.0,5.4,45,0.00,,,0.00,WSDL version 423,2013-02-25 22:24:00,
2013-02-25 17:30:00,42.6,23.2,-100.00,SE,128,2.5,4.7,46,0.00,,,0.00,WSDL version 423,2013-02-25 22:30:00,
2013-02-25 17:36:00,42.4,23.1,-100.00,ESE,115,1.5,4.7,46,0.00,,,0.00,WSDL version 423,2013-02-25 22:36:00,
2013-02-25 17:42:00,42.3,23.3,-100.00,ESE,115,0.6,2.7,47,0.00,,,0.00,WSDL version 423,2013-02-25 22:42:00,
2013-02-25 17:48:00,42.3,23.5,-100.00,SE,135,0.4,2.7,47,0.00,,,0.00,WSDL version 423,2013-02-25 22:48:00,
2013-02-25 17:54:00,42.1,23.3,-100.00,ESE,121,1.0,2.7,47,0.00,,,0.00,WSDL version 423,2013-02-25 22:54:00,
2013-02-25 18:00:00,42.1,23.3,-100.00,SE,138,1.3,3.1,47,0.00,,,0.00,WSDL version 423,2013-02-25 23:00:00,
2013-02-25 18:06:00,42.1,23.4,-100.00,ESE,104,1.4,3.6,48,0.00,,,0.00,WSDL version 423,2013-02-25 23:06:00,
2013-02-25 18:12:00,42.1,23.8,-100.00,SE,125,1.5,6.0,48,0.00,,,0.00,WSDL version 423,2013-02-25 23:12:00,
2013-02-25 18:18:00,42.1,23.8,-100.00,ESE,121,2.8,6.0,48,0.00,,,0.00,WSDL version 423,2013-02-25 23:18:00,
2013-02-25 18:24:00,41.8,23.6,-100.00,SSE,151,1.0,4.7,48,0.00,,,0.00,WSDL version 423,2013-02-25 23:24:00,
2013-02-25 18:30:00,41.7,23.5,-100.00,SE,129,0.4,2.7,48,0.00,,,0.00,WSDL version 423,2013-02-25 23:30:00,
2013-02-25 18:36:00,41.7,23.5,-100.00,ESE,110,2.0,3.8,48,0.00,,,0.00,WSDL version 423,2013-02-25 23:36:00,
2013-02-25 18:42:00,41.7,23.5,-100.00,SE,129,0.9,3.8,48,0.00,,,0.00,WSDL version 423,2013-02-25 23:42:00,
2013-02-25 18:48:00,41.5,23.3,-100.00,ESE,119,1.5,3.4,48,0.00,,,0.00,WSDL version 423,2013-02-25 23:48:00,
2013-02-25 18:54:00,41.5,23.3,-100.00,East,90,0.0,3.1,48,0.00,,,0.00,WSDL version 423,2013-02-25 23:54:00,
2013-02-25 19:00:00,41.5,23.3,-100.00,South,172,1.1,3.6,48,0.00,,,0.00,WSDL version 423,2013-02-26 00:00:00,
2013-02-25 19:06:00,41.5,23.6,-100.00,East,101,0.0,3.6,49,0.00,,,0.00,WSDL version 423,2013-02-26 00:06:00,
2013-02-25 19:12:00,41.4,23.6,-100.00,SE,135,0.2,2.2,49,0.00,,,0.00,WSDL version 423,2013-02-26 00:12:00,
2013-02-25 19:18:00,41.4,23.6,-100.00,SE,135,0.0,2.2,49,0.00,,,0.00,WSDL version 423,2013-02-26 00:18:00,
2013-02-25 19:24:00,41.4,23.6,-100.00,ESE,103,0.5,2.7,49,0.00,,,0.00,WSDL version 423,2013-02-26 00:24:00,
2013-02-25 19:30:00,41.4,23.6,-100.00,East,98,0.0,2.7,49,0.00,,,0.00,WSDL version 423,2013-02-26 00:30:00,
2013-02-25 19:36:00,41.4,23.6,-100.00,East,101,0.7,2.9,49,0.00,,,0.00,WSDL version 423,2013-02-26 00:36:00,
2013-02-25 19:42:00,41.3,23.6,-100.00,East,79,0.0,2.0,49,0.00,,,0.00,WSDL version 423,2013-02-26 00:42:00,
2013-02-25 19:48:00,41.2,23.5,-100.00,SE,135,0.0,0.0,49,0.00,,,0.00,WSDL version 423,2013-02-26 00:48:00,
2013-02-25 19:54:00,41.2,23.5,-100.00,SE,135,0.0,0.0,49,0.00,,,0.00,WSDL version 423,2013-02-26 00:54:00,
2013-02-25 20:00:00,41.2,23.5,-100.00,East,90,0.0,1.6,49,0.00,,,0.00,WSDL version 423,2013-02-26 01:00:00,
2013-02-25 20:06:00,41.2,23.5,-100.00,ESE,113,0.3,1.3,49,0.00,,,0.00,WSDL version 423,2013-02-26 01:06:00,
2013-02-25 20:12:00,41.2,23.5,-100.00,South,174,0.0,1.3,49,0.00,,,0.00,WSDL version 423,2013-02-26 01:12:00,
2013-02-25 20:18:00,41.2,23.5,-100.00,East,90,0.0,0.0,49,0.00,,,0.00,WSDL version 423,2013-02-26 01:18:00,
2013-02-25 20:24:00,41.0,23.3,-100.00,East,90,0.0,0.0,49,0.00,,,0.00,WSDL version 423,2013-02-26 01:24:00,
2013-02-25 20:30:00,41.0,23.3,-100.00,East,90,0.0,0.0,49,0.00,,,0.00,WSDL version 423,2013-02-26 01:30:00,
2013-02-25 20:36:00,40.9,23.5,-100.00,East,90,0.0,0.0,50,0.00,,,0.00,WSDL version 423,2013-02-26 01:36:00,
2013-02-25 20:42:00,40.8,23.6,-100.00,ENE,68,0.0,0.0,50,0.00,,,0.00,WSDL version 423,2013-02-26 01:42:00,
2013-02-25 20:48:00,40.6,23.5,-100.00,ENE,77,0.0,1.6,50,0.00,,,0.00,WSDL version 423,2013-02-26 01:48:00,
2013-02-25 20:54:00,40.8,23.6,-100.00,East,90,0.0,1.6,50,0.00,,,0.00,WSDL version 423,2013-02-26 01:54:00,
2013-02-25 21:00:00,40.8,23.6,-100.00,East,90,0.0,0.0,50,0.00,,,0.00,WSDL version 423,2013-02-26 02:00:00,
2013-02-25 21:06:00,41.0,23.8,-100.00,East,90,0.0,0.0,50,0.00,,,0.00,WSDL version 423,2013-02-26 02:06:00,
2013-02-25 21:12:00,41.0,23.8,-100.00,SSE,158,0.0,0.0,50,0.00,,,0.00,WSDL version 423,2013-02-26 02:12:00,
2013-02-25 21:18:00,40.9,23.7,-100.00,SSE,158,0.0,0.0,50,0.00,,,0.00,WSDL version 423,2013-02-26 02:18:00,
2013-02-25 21:24:00,40.8,23.6,-100.00,SSE,158,0.0,0.0,50,0.00,,,0.00,WSDL version 423,2013-02-26 02:24:00,
2013-02-25 21:30:00,40.8,23.6,-100.00,ESE,113,0.0,0.0,50,0.00,,,0.00,WSDL version 423,2013-02-26 02:30:00,
2013-02-25 21:36:00,40.8,23.6,-100.00,SSE,150,0.4,2.0,50,0.00,,,0.00,WSDL version 423,2013-02-26 02:36:00,
2013-02-25 21:42:00,40.8,23.6,-100.00,SE,125,0.0,2.0,50,0.00,,,0.00,WSDL version 423,2013-02-26 02:42:00,
2013-02-25 21:48:00,40.8,23.6,-100.00,SSE,158,0.1,2.7,50,0.00,,,0.00,WSDL version 423,2013-02-26 02:48:00,
2013-02-25 21:54:00,40.6,23.5,-100.00,SSE,151,0.0,2.7,50,0.00,,,0.00,WSDL version 423,2013-02-26 02:54:00,
2013-02-25 22:00:00,40.6,23.5,-100.00,East,96,0.0,1.3,50,0.00,,,0.00,WSDL version 423,2013-02-26 03:00:00,
2013-02-25 22:06:00,40.5,23.4,-100.00,ESE,113,0.7,2.5,50,0.00,,,0.00,WSDL version 423,2013-02-26 03:06:00,
2013-02-25 22:12:00,40.2,23.5,-100.00,ESE,122,0.8,1.6,51,0.00,,,0.00,WSDL version 423,2013-02-26 03:12:00,
2013-02-25 22:18:00,39.9,23.3,-100.00,SE,127,0.0,1.6,51,0.00,,,0.00,WSDL version 423,2013-02-26 03:18:00,
2013-02-25 22:24:00,39.7,23.1,-100.00,ESE,109,0.6,2.0,51,0.00,,,0.00,WSDL version 423,2013-02-26 03:24:00,
2013-02-25 22:30:00,39.7,23.1,-100.00,SE,135,0.0,2.5,51,0.00,,,0.00,WSDL version 423,2013-02-26 03:30:00,
2013-02-25 22:36:00,39.6,22.9,-100.00,SE,140,0.0,1.6,51,0.00,,,0.00,WSDL version 423,2013-02-26 03:36:00,
2013-02-25 22:42:00,39.4,22.8,-100.00,SW,225,0.0,1.6,51,0.00,,,0.00,WSDL version 423,2013-02-26 03:42:00,
2013-02-25 22:48:00,39.1,22.7,-100.00,SE,135,0.0,0.0,52,0.00,,,0.00,WSDL version 423,2013-02-26 03:48:00,
2013-02-25 22:54:00,38.8,22.6,-100.00,SE,138,0.0,0.0,52,0.00,,,0.00,WSDL version 423,2013-02-26 03:54:00,
2013-02-25 23:00:00,38.5,22.4,-100.00,SE,135,0.0,0.0,52,0.00,,,0.00,WSDL version 423,2013-02-26 04:00:00,
2013-02-25 23:06:00,38.3,22.2,-100.00,South,180,0.0,0.0,52,0.00,,,0.00,WSDL version 423,2013-02-26 04:06:00,
2013-02-25 23:12:00,38.1,22.0,-100.00,South,180,0.0,0.0,52,0.00,,,0.00,WSDL version 423,2013-02-26 04:12:00,
2013-02-25 23:18:00,37.9,21.9,-100.00,South,180,0.0,0.0,52,0.00,,,0.00,WSDL version 423,2013-02-26 04:18:00,
2013-02-25 23:24:00,37.6,21.6,-100.00,South,180,0.0,0.0,52,0.00,,,0.00,WSDL version 423,2013-02-26 04:24:00,
2013-02-25 23:30:00,37.4,21.5,-100.00,South,180,0.0,0.0,53,0.00,,,0.00,WSDL version 423,2013-02-26 04:30:00,
2013-02-25 23:36:00,37.0,21.4,-100.00,South,180,0.0,0.0,53,0.00,,,0.00,WSDL version 423,2013-02-26 04:36:00,
2013-02-25 23:42:00,36.7,21.2,-100.00,South,180,0.0,0.0,53,0.00,,,0.00,WSDL version 423,2013-02-26 04:42:00,
2013-02-25 23:48:00,36.4,20.9,-100.00,South,180,0.0,0.0,53,0.00,,,0.00,WSDL version 423,2013-02-26 04:48:00,
2013-02-25 23:54:00,36.3,20.8,-100.00,South,180,0.0,0.0,53,0.00,,,0.00,WSDL version 423,2013-02-26 04:54:00,